Regional Weather Roundup
Issued by NWS

Home | Current Version | Previous Version | Text Only | Print | Product List | Glossary Off
Versions: 1 2 3 4 5 6 7 8 9 10 11 12 13 14 15 16 17 18 19 20 21 22 23 24 25 26 27 28 29 30 31 32 33 34 35 36 37 38 39 40 41 42 43 44 45 46 47 48 49 50

000
ASUS45 KBOU 191407
RWRCO

WEATHER ROUNDUP FOR COLORADO
NATIONAL WEATHER SERVICE DENVER/BOULDER CO
700 AM MST THU JAN 19 2017

NOTE: "FAIR" INDICATES FEW OR NO CLOUDS BELOW 12000 FEET WITH NO
SIGNIFICANT WEATHER AND/OR OBSTRUCTIONS TO VISIBILITY.

COZ001>005-013-030-031-191500-
...NORTHWEST COLORADO...

CITY           SKY/WX    TMP DP  RH WIND       PRES   REMARKS
CRAIG          FAIR       1  -3  83 W5        29.85R WCI  -9
HAYDEN         FAIR      12   7  79 E16       29.81F WCI  -4
MEEKER         FAIR      12   8  84 NE6       29.84S WCI   3
MOUNT WERNER   NOT AVBL
STEAMBOAT SPGS FAIR       6   3  88 CALM      29.83F
WALDEN           N/A    N/A N/A N/A CALM      29.82F
$$

COZ006>008-011-191500-
...WEST CENTRAL VALLEYS...

CITY           SKY/WX    TMP DP  RH WIND       PRES   REMARKS
GRAND JUNCTION FAIR      27  24  89 SE9       29.86F WCI  18
MONTROSE       FAIR      24  18  77 SE5       29.91S WCI  18
EAGLE          CLOUDY     7   5  91 CALM      29.94F
RIFLE          FAIR      19  17  92 SE5       29.90R WCI  12
DELTA          FAIR      26  22  83 NE6       29.90F WCI  20
NUCLA          FAIR      27  19  74 E10       29.92S WCI  17
$$

COZ017>023-064>068-191500-
...SOUTHWEST COLORADO...

CITY           SKY/WX    TMP DP  RH WIND       PRES   REMARKS
DURANGO        FOG       25  23  92 E5        29.91S VSB 1/4 WCI  19
CORTEZ         FAIR      20  18  92 NE5       29.92R WCI  13
PAGOSA SPRINGS MOCLDY    22  21  98 CALM      29.91R
TELLURIDE      FAIR      19  10  68 SE5       29.89S WCI  12
WOLF CREEK PAS   N/A     16  16 100 SW8       29.92S WCI   5
$$

COZ009-010-012-014-032>034-037-058>063-191500-
...CENTRAL COLORADO...

CITY           SKY/WX    TMP DP  RH WIND       PRES   REMARKS
ASPEN          FAIR       5   2  87 CALM      29.83F
BUENA VISTA    FAIR       7   4  89 SW3       29.78F
COPPER MTN     FAIR      23   5  46 W8        29.87S WCI  14
BERTHOUD PASS  NOT AVBL
COTTONWOOD PAS FAIR      32   7  34 W9        29.78F WCI  24
GUNNISON       SNOW       0  -2  92 CALM      29.98S VSB 1/2
KREMMLING      CLOUDY     7   1  78 CALM      29.94S HAZE
LEADVILLE      FAIR      10   2  69 NE9       29.81F WCI  -3
MONARCH PASS   FAIR      18  10  73 W7        29.92S WCI   8
SALIDA         FAIR      25  18  72 NW9       29.85F WCI  16
SUNLIGHT       FAIR      18  12  79 S10       29.88F WCI   6
WILKERSON PASS FAIR      28   0  29 NW10G20   29.81S WCI  19
$$

COZ069>075-191500-
...SAN LUIS VALLEY/SANGRE DE CRISTO MOUNTAINS...

CITY           SKY/WX    TMP DP  RH WIND       PRES   REMARKS
ALAMOSA        CLOUDY    20  19  96 SE6       29.88F FOG     WCI  12
LA VETA PASS   CLOUDY    16  12  86 NE37G45   29.74S FOG     WCI  -6
SAGUACHE       FOG       14  10  85 NW5       29.89S VSB 1/2 WCI   6
$$

COZ035-036-038>040-191500-
...NORTHERN COLORADO FRONT RANGE...

CITY           SKY/WX    TMP DP  RH WIND       PRES   REMARKS
DENVER INTL AP FAIR      31  15  52 S8        29.61S WCI  23
DMNS CITY PARK   N/A     29  14  52 SE8       29.60F WCI  21
AURORA         PTCLDY    30  14  51 S10       29.61F WCI  21
FRONT RANGE AP CLEAR     27  18  69 S6        29.62  WCI  20
ERIE MUNI ARPT FAIR      19  16  88 CALM      29.60F
BOULDER MUN AP FAIR      28  18  64 CALM      29.59S
CENTENNIAL     FAIR      23  12  62 S6        29.61F WCI  16
BROOMFIELD     CLEAR     37  12  35 CALM      29.61S
FORT COLLINS   FAIR      19  18  93 N5        29.62S WCI  13
LONGMONT       FAIR      22  16  77 CALM      29.63S
$$

COZ041-046-047-076>085-087-088-191500-
...PIKES PEAK/PALMER DIVIDE AND SOUTHERN FOOTHILLS...

CITY           SKY/WX    TMP DP  RH WIND       PRES   REMARKS
COLO. SPRINGS  FAIR      31  11  43 N3        29.65R
A. F. ACADEMY  FAIR      23  11  58 N5        29.64R WCI  17
SCHRIEVER AFB  NOT AVBL
ELLICOTT       FAIR     N/A N/A N/A NE6       29.62S
FALCON         FAIR      34   9  35 CALM      29.66R
FORT CARSON    CLEAR     34  12  40 N5        29.65R WCI  30
LIMON          FAIR      14  11  87 NW6       29.62S WCI   5
MONUMENT HILL  FAIR      27  10  50 W7        29.66S WCI  19
TRINIDAD       FAIR      25  13  60 W14       29.65R WCI  13
$$

COZ042>045-048>051-090-091-191500-
...NORTHEAST COLORADO...

CITY           SKY/WX    TMP DP  RH WIND       PRES   REMARKS
GREELEY ARPT   FAIR      19  18  95 CALM      29.63S
AKRON          FAIR      24  18  77 W12       29.59F WCI  13
BURLINGTON     FAIR      23  18  81 W8        29.59F WCI  14
WRAY           NOT AVBL
STERLING       FAIR      18  14  86 SW6       29.62S WCI   9
HOLYOKE        FAIR      21  18  86 NW3       29.60F
FORT MORGAN    FAIR      19  17  90 W5        29.61F WCI  12
$$

COZ086-089-092>099-191500-
...SOUTHEAST COLORADO...

CITY           SKY/WX    TMP DP  RH WIND       PRES   REMARKS
PUEBLO         FAIR      22  17  81 CALM      29.63R
LA JUNTA       FAIR      20  16  84 W13       29.62S WCI   7
LAMAR          FAIR      19  16  88 W8        29.61R WCI   9
SPRINGFIELD      N/A     27  22  81 NW13      29.58R WCI  16
$$



USA.gov is the U.S. government's official web portal to all federal, state and local government web resources and services.